Radiation Dose at Monitoring Post of Fukushima Daini Nuclear Power Station
Date,Time,MP-1(microSv/h),MP-2(microSv/h),MP-3(microSv/h),MP-4(microSv/h),MP-5(microSv/h),MP-6(microSv/h),MP-7(microSv/h),Wind Direction,Wind Velocity(m/s),Rain
2017/01/25,00:00,0.379,0.227,0.391,0.365,0.331,0.189,0.162,north,3.4,No
2017/01/25,00:10,0.381,0.228,0.393,0.364,0.331,0.189,0.162,north,3.7,No
2017/01/25,00:20,0.379,0.227,0.392,0.363,0.332,0.189,0.161,north-northeast,1.9,No
2017/01/25,00:30,0.379,0.227,0.392,0.363,0.332,0.190,0.161,north-northeast,0.8,No
2017/01/25,00:40,0.379,0.227,0.394,0.362,0.332,0.188,0.160,north-northeast,0.8,No
2017/01/25,00:50,0.380,0.228,0.392,0.364,0.331,0.188,0.162,north,2.0,No
2017/01/25,01:00,0.379,0.227,0.394,0.363,0.331,0.190,0.161,north,2.8,No
2017/01/25,01:10,0.379,0.227,0.394,0.364,0.330,0.190,0.162,north,3.4,No
2017/01/25,01:20,0.379,0.227,0.393,0.363,0.332,0.189,0.162,north,3.8,No
2017/01/25,01:30,0.381,0.228,0.392,0.364,0.332,0.188,0.162,north,4.7,No
2017/01/25,01:40,0.381,0.228,0.392,0.363,0.332,0.190,0.163,north,4.0,No
2017/01/25,01:50,0.379,0.228,0.392,0.364,0.332,0.189,0.162,north-northwest,4.6,No
2017/01/25,02:00,0.379,0.228,0.394,0.363,0.330,0.190,0.162,north,5.1,No
2017/01/25,02:10,0.380,0.227,0.394,0.365,0.331,0.190,0.163,north,4.1,No
2017/01/25,02:20,0.380,0.228,0.392,0.364,0.331,0.189,0.162,north,4.5,No
2017/01/25,02:30,0.380,0.229,0.393,0.364,0.330,0.189,0.163,north,5.0,No
2017/01/25,02:40,0.379,0.228,0.392,0.363,0.331,0.189,0.161,north,4.5,No
2017/01/25,02:50,0.379,0.229,0.394,0.363,0.330,0.189,0.162,north,4.2,No
2017/01/25,03:00,0.379,0.228,0.392,0.365,0.333,0.190,0.162,north-northeast,3.7,No
2017/01/25,03:10,0.379,0.228,0.392,0.364,0.331,0.189,0.162,north,2.5,No
2017/01/25,03:20,0.381,0.227,0.393,0.365,0.332,0.188,0.162,north-northeast,2.2,No
2017/01/25,03:30,0.379,0.227,0.393,0.363,0.331,0.188,0.162,north,2.6,No
2017/01/25,03:40,0.379,0.227,0.392,0.363,0.332,0.189,0.162,north,1.7,No
2017/01/25,03:50,0.379,0.227,0.393,0.364,0.331,0.189,0.162,northeast,0.7,No
2017/01/25,04:00,0.379,0.227,0.393,0.363,0.331,0.189,0.162,northeast,1.0,No
2017/01/25,04:10,0.380,0.226,0.392,0.364,0.331,0.188,0.161,east-northeast,1.2,No
2017/01/25,04:20,0.379,0.227,0.393,0.363,0.330,0.190,0.163,north,1.7,No
2017/01/25,04:30,0.380,0.227,0.392,0.364,0.330,0.188,0.161,east,1.2,No
2017/01/25,04:40,0.379,0.227,0.393,0.363,0.332,0.189,0.162,north-northeast,1.8,No
2017/01/25,04:50,0.379,0.228,0.394,0.363,0.332,0.188,0.161,north-northeast,1.9,No
2017/01/25,05:00,0.379,0.226,0.392,0.364,0.331,0.188,0.161,north-northeast,2.7,No
2017/01/25,05:10,0.378,0.228,0.394,0.364,0.331,0.188,0.161,north-northeast,2.9,No
2017/01/25,05:20,0.380,0.226,0.391,0.363,0.329,0.189,0.162,north-northeast,3.4,No
2017/01/25,05:30,0.378,0.226,0.392,0.363,0.332,0.189,0.162,north-northeast,2.7,No
2017/01/25,05:40,0.379,0.227,0.392,0.362,0.332,0.188,0.162,north,2.7,No
2017/01/25,05:50,0.380,0.227,0.392,0.362,0.333,0.189,0.162,north,2.0,No
2017/01/25,06:00,0.380,0.228,0.392,0.363,0.331,0.188,0.163,north-northeast,1.6,No
2017/01/25,06:10,0.378,0.226,0.392,0.365,0.330,0.188,0.161,east-northeast,1.4,No
2017/01/25,06:20,0.378,0.227,0.391,0.362,0.330,0.188,0.162,northeast,1.6,No
2017/01/25,06:30,0.379,0.228,0.392,0.362,0.329,0.188,0.162,north-northeast,2.4,No
2017/01/25,06:40,0.379,0.226,0.393,0.363,0.330,0.189,0.161,northeast,3.1,No
2017/01/25,06:50,0.379,0.226,0.393,0.363,0.331,0.188,0.161,north-northeast,2.8,No
2017/01/25,07:00,0.379,0.227,0.392,0.361,0.331,0.188,0.162,north-northeast,1.7,No
2017/01/25,07:10,0.377,0.228,0.392,0.362,0.331,0.189,0.161,north,1.4,No
2017/01/25,07:20,0.377,0.227,0.392,0.363,0.332,0.188,0.162,north-northeast,1.7,No
2017/01/25,07:30,0.378,0.227,0.391,0.363,0.330,0.188,0.161,north-northeast,2.5,No
2017/01/25,07:40,0.379,0.226,0.392,0.359,0.330,0.188,0.161,north,1.5,No
2017/01/25,07:50,0.378,0.227,0.391,0.361,0.331,0.188,0.161,north-northeast,1.4,No
2017/01/25,08:00,0.378,0.226,0.393,0.363,0.330,0.187,0.162,-,CALM,No
2017/01/25,08:10,0.379,0.227,0.391,0.363,0.330,0.187,0.161,west-northwest,2.5,No
2017/01/25,08:20,0.379,0.226,0.391,0.361,0.330,0.188,0.161,northwest,3.3,No
2017/01/25,08:30,0.378,0.226,0.391,0.359,0.330,0.187,0.161,northwest,2.0,No
2017/01/25,08:40,0.378,0.225,0.392,0.362,0.330,0.189,0.162,northwest,2.4,No
2017/01/25,08:50,0.378,0.226,0.390,0.362,0.329,0.189,0.161,northwest,2.0,No
2017/01/25,09:00,0.379,0.227,0.391,0.361,0.329,0.188,0.161,north-northwest,2.1,No
2017/01/25,09:10,0.378,0.226,0.390,0.361,0.330,0.188,0.161,north-northwest,2.2,No
2017/01/25,09:20,0.377,0.225,0.391,0.364,0.331,0.188,0.161,north-northwest,3.1,No
2017/01/25,09:30,0.377,0.225,0.390,0.361,0.329,0.187,0.161,northwest,2.1,No
2017/01/25,09:40,0.377,0.224,0.389,0.361,0.329,0.187,0.162,north-northwest,3.1,No
2017/01/25,09:50,0.378,0.225,0.390,0.361,0.330,0.187,0.160,northwest,4.1,No
2017/01/25,10:00,-,0.225,0.391,0.360,0.330,0.188,0.161,northwest,4.3,No
2017/01/25,10:10,-,0.225,0.390,0.362,0.329,0.188,0.161,northwest,4.7,No
2017/01/25,10:20,-,0.225,0.389,0.360,0.329,0.187,0.161,west-northwest,3.9,No
2017/01/25,10:30,-,0.225,0.388,0.360,0.331,0.188,0.162,northwest,3.0,No
2017/01/25,10:40,-,0.226,0.392,0.365,0.329,0.188,0.161,north-northwest,3.9,No
2017/01/25,10:50,-,0.226,0.391,0.361,0.329,0.188,0.161,north-northwest,4.8,No
2017/01/25,11:00,-,0.226,0.390,0.363,0.332,0.188,0.161,northwest,3.2,No
2017/01/25,11:10,-,0.226,0.391,0.361,0.330,0.188,0.161,northwest,3.0,No
2017/01/25,11:20,-,0.226,0.391,0.361,0.331,0.187,0.161,north-northwest,3.1,No
2017/01/25,11:30,-,0.228,0.391,0.366,0.333,0.187,0.162,north,2.1,No
2017/01/25,11:40,-,0.225,0.389,0.363,0.332,0.188,0.161,north-northeast,2.1,No
2017/01/25,11:50,-,0.226,0.390,0.363,0.330,0.188,0.162,north,1.5,No
2017/01/25,12:00,-,0.227,0.390,0.364,0.331,0.189,0.161,-,CALM,No
2017/01/25,12:10,-,0.227,0.390,0.362,0.330,0.188,0.161,northwest,4.3,No
2017/01/25,12:20,-,0.226,0.390,0.364,0.331,0.188,0.162,northwest,4.8,No
2017/01/25,12:30,-,0.226,0.389,0.361,0.332,0.189,0.161,northwest,6.4,No
2017/01/25,12:40,-,0.226,0.389,0.362,0.330,0.188,0.161,north-northwest,5.6,No
2017/01/25,12:50,-,0.226,0.391,0.363,0.331,0.188,0.162,west-northwest,6.5,No
2017/01/25,13:00,-,0.225,0.388,0.362,0.329,0.189,0.160,west-northwest,7.4,No
2017/01/25,13:10,-,0.228,0.390,0.365,0.327,0.189,0.161,west-northwest,7.4,No
2017/01/25,13:20,-,0.227,0.391,0.360,0.334,0.189,0.161,northwest,7.3,No
2017/01/25,13:30,-,0.228,0.389,0.363,0.332,0.188,0.160,northwest,6.7,No
2017/01/25,13:40,-,0.227,0.391,0.361,0.332,0.189,0.160,west-northwest,7.2,No
2017/01/25,13:50,-,0.227,0.390,0.363,0.332,0.189,0.161,west-northwest,7.3,No
2017/01/25,14:00,-,0.226,0.391,0.363,0.331,0.189,0.161,northwest,7.2,No
2017/01/25,14:10,-,0.228,0.391,0.363,0.331,0.189,0.162,northwest,7.2,No
2017/01/25,14:20,-,0.228,0.391,0.364,0.332,0.189,0.161,northwest,7.6,No
2017/01/25,14:30,-,0.227,0.390,0.363,0.333,0.188,0.162,northwest,6.4,No
2017/01/25,14:40,-,0.227,0.392,0.363,0.332,0.189,0.162,west-northwest,7.8,No
2017/01/25,14:50,-,0.227,0.392,0.363,0.333,0.188,0.162,west-northwest,8.6,No
2017/01/25,15:00,-,0.228,0.390,0.364,0.332,0.188,0.162,west-northwest,6.4,No
2017/01/25,15:10,-,0.228,0.393,0.364,0.333,0.189,0.162,west-northwest,9.5,No
2017/01/25,15:20,-,0.227,0.392,0.366,0.332,0.188,0.162,west,9.4,No
2017/01/25,15:30,-,0.227,0.393,0.364,0.333,0.189,0.162,northwest,5.3,No
2017/01/25,15:40,-,0.228,0.393,0.364,0.332,0.188,0.162,northwest,8.4,No
2017/01/25,15:50,-,0.228,0.393,0.365,0.333,0.189,0.162,west-northwest,7.7,No
2017/01/25,16:00,-,0.227,0.394,0.363,0.334,0.190,0.161,west-northwest,7.8,No
2017/01/25,16:10,-,0.228,0.392,0.362,0.333,0.189,0.162,west-northwest,6.6,No
2017/01/25,16:20,-,0.227,0.393,0.364,0.332,0.190,0.162,west,3.5,No
2017/01/25,16:30,-,0.229,0.394,0.365,0.332,0.190,0.162,west-northwest,4.2,No
2017/01/25,16:40,-,0.228,0.393,0.364,0.332,0.189,0.162,west-northwest,8.8,No
2017/01/25,16:50,-,0.228,0.391,0.364,0.332,0.189,0.162,west-northwest,8.3,No
2017/01/25,17:00,-,0.228,0.393,0.365,0.331,0.189,0.163,west-northwest,6.2,No
2017/01/25,17:10,-,0.228,0.394,0.365,0.331,0.190,0.161,west-northwest,4.7,No
2017/01/25,17:20,-,0.228,0.393,0.366,0.332,0.190,0.162,west-northwest,6.1,No
2017/01/25,17:30,-,0.228,0.393,0.364,0.332,0.191,0.161,west-northwest,7.0,No
2017/01/25,17:40,-,0.230,0.393,0.364,0.332,0.189,0.162,west-northwest,3.2,No
2017/01/25,17:50,-,0.228,0.394,0.364,0.331,0.189,0.162,west-northwest,2.7,No
2017/01/25,18:00,0.379,0.228,0.393,0.364,0.332,0.189,0.161,west-northwest,2.5,No
2017/01/25,18:10,0.382,0.228,0.391,0.364,0.332,0.189,0.162,west-northwest,5.1,No
2017/01/25,18:20,0.381,0.229,0.392,0.363,0.333,0.189,0.163,west-northwest,4.5,No
2017/01/25,18:30,0.381,0.227,0.392,0.365,0.332,0.191,0.163,northwest,4.6,No
2017/01/25,18:40,0.382,0.228,0.394,0.364,0.332,0.190,0.162,northwest,5.9,No
2017/01/25,18:50,0.382,0.228,0.394,0.363,0.332,0.190,0.162,west-northwest,5.8,No
2017/01/25,19:00,0.379,0.228,0.393,0.364,0.332,0.189,0.162,northwest,3.9,No
2017/01/25,19:10,0.381,0.229,0.393,0.364,0.332,0.190,0.162,northwest,1.4,No
2017/01/25,19:20,0.381,0.229,0.393,0.365,0.333,0.189,0.161,north-northeast,1.9,No
2017/01/25,19:30,0.381,0.226,0.393,0.365,0.332,0.190,0.163,north-northeast,2.5,No
2017/01/25,19:40,0.381,0.228,0.393,0.364,0.332,0.189,0.162,north,4.2,No
2017/01/25,19:50,0.380,0.228,0.393,0.364,0.333,0.189,0.161,north,4.9,No
2017/01/25,20:00,0.380,0.227,0.393,0.366,0.333,0.189,0.162,north-northwest,3.1,No
2017/01/25,20:10,0.381,0.227,0.392,0.364,0.332,0.189,0.161,north-northwest,2.7,No
2017/01/25,20:20,0.380,0.227,0.394,0.365,0.333,0.189,0.161,north-northwest,2.7,No
2017/01/25,20:30,0.381,0.229,0.392,0.365,0.331,0.189,0.161,north,2.8,No
2017/01/25,20:40,0.382,0.227,0.392,0.364,0.331,0.189,0.162,north,1.4,No
2017/01/25,20:50,0.380,0.228,0.394,0.365,0.333,0.189,0.162,north-northwest,2.5,No
2017/01/25,21:00,0.381,0.228,0.395,0.364,0.331,0.189,0.163,north,2.0,No
2017/01/25,21:10,0.380,0.227,0.394,0.363,0.331,0.189,0.161,north-northeast,1.6,No
2017/01/25,21:20,0.383,0.228,0.393,0.364,0.330,0.190,0.162,north-northwest,1.3,No
2017/01/25,21:30,0.380,0.228,0.392,0.363,0.331,0.188,0.162,north-northwest,0.7,No
2017/01/25,21:40,0.381,0.228,0.394,0.366,0.332,0.189,0.162,north-northwest,1.2,No
2017/01/25,21:50,0.380,0.227,0.394,0.365,0.331,0.189,0.162,north-northwest,1.4,No
2017/01/25,22:00,0.380,0.227,0.393,0.364,0.331,0.190,0.161,northwest,2.2,No
2017/01/25,22:10,0.380,0.229,0.392,0.364,0.331,0.189,0.162,northwest,2.8,No
2017/01/25,22:20,0.380,0.230,0.392,0.365,0.332,0.190,0.162,northwest,2.8,No
2017/01/25,22:30,0.381,0.227,0.393,0.364,0.331,0.190,0.162,northwest,3.1,No
2017/01/25,22:40,0.379,0.226,0.394,0.364,0.332,0.190,0.162,northwest,1.9,No
2017/01/25,22:50,0.382,0.229,0.393,0.364,0.333,0.190,0.161,-,CALM,No
2017/01/25,23:00,0.382,0.228,0.395,0.364,0.331,0.188,0.162,-,CALM,No
2017/01/25,23:10,0.381,0.227,0.395,0.364,0.331,0.190,0.162,north,0.7,No
2017/01/25,23:20,0.381,0.228,0.392,0.365,0.331,0.190,0.162,north,0.8,No
2017/01/25,23:30,0.382,0.229,0.393,0.365,0.332,0.189,0.162,north,0.6,No
2017/01/25,23:40,0.381,0.228,0.393,0.364,0.332,0.189,0.162,north-northeast,1.1,No
2017/01/25,23:50,0.381,0.228,0.394,0.364,0.331,0.189,0.162,north,1.7,No
